CCA4381 ZUCK-ZHHH

Flight info

Callsign CCA4381
Flight time 1h 4m
Altitude 26600
Route OLNER1Z OLNER B213 WTM WTM2T
Aircraft B38M/M-SDE1FGHILORVWXY/HB1

Departure

Time 2026-05-06 01:09
Airport Chongqing Jiangbei International Airport (ZUCK)

Arrival

Time 2026-05-06 02:14
Airport Wuhan Tianhe International Airport (ZHHH)
Time Latitude Longitude Altitude Speed Heading
2026-05-06 00:48 29.73344 106.66288 1332 ft 0 kts 292°
2026-05-06 00:59 29.73337 106.66312 1332 ft 4 kts 289°
2026-05-06 00:59 29.73329 106.66341 1331 ft 4 kts 282°
2026-05-06 00:59 29.73326 106.66371 1330 ft 4 kts 265°
2026-05-06 01:00 29.73334 106.66396 1330 ft 4 kts 211°
2026-05-06 01:00 29.73339 106.66399 1330 ft 1 kts 197°
2026-05-06 01:02 29.73338 106.66399 1330 ft 0 kts 197°
2026-05-06 01:02 29.73318 106.66391 1332 ft 9 kts 196°
2026-05-06 01:02 29.73220 106.66412 1331 ft 20 kts 147°
2026-05-06 01:02 29.73046 106.66394 1331 ft 31 kts 196°
2026-05-06 01:03 29.72800 106.66311 1332 ft 42 kts 200°
2026-05-06 01:03 29.72487 106.66201 1335 ft 51 kts 196°
2026-05-06 01:03 29.72147 106.66084 1337 ft 51 kts 199°
2026-05-06 01:03 29.71874 106.65981 1340 ft 30 kts 196°
2026-05-06 01:04 29.71717 106.65929 1344 ft 17 kts 196°
2026-05-06 01:04 29.71651 106.65928 1342 ft 6 kts 123°
2026-05-06 01:04 29.71639 106.65965 1340 ft 3 kts 108°
2026-05-06 01:04 29.71637 106.65974 1339 ft 2 kts 108°
2026-05-06 01:05 29.71634 106.65983 1341 ft 0 kts 107°
2026-05-06 01:05 29.71633 106.65987 1342 ft 0 kts 107°
2026-05-06 01:05 29.71631 106.65997 1342 ft 3 kts 105°
2026-05-06 01:05 29.71623 106.66025 1339 ft 5 kts 110°
2026-05-06 01:06 29.71609 106.66070 1338 ft 7 kts 105°
2026-05-06 01:06 29.71596 106.66130 1338 ft 9 kts 101°
2026-05-06 01:06 29.71607 106.66195 1340 ft 9 kts 48°
2026-05-06 01:06 29.71644 106.66215 1338 ft 0 kts 16°
2026-05-06 01:08 29.71660 106.66220 1338 ft 12 kts 16°
2026-05-06 01:09 29.71991 106.66334 1335 ft 86 kts 17°
2026-05-06 01:09 29.72757 106.66600 1333 ft 145 kts 17°
2026-05-06 01:09 29.73877 106.66990 1452 ft 184 kts 17°
2026-05-06 01:09 29.75127 106.67416 2140 ft 188 kts 19°
2026-05-06 01:10 29.76435 106.67863 2715 ft 202 kts 21°
2026-05-06 01:10 29.77790 106.68557 2924 ft 226 kts 34°
2026-05-06 01:10 29.79161 106.69589 3228 ft 248 kts 38°
2026-05-06 01:10 29.80634 106.70715 3799 ft 260 kts 36°
2026-05-06 01:11 29.82197 106.71898 4262 ft 277 kts 36°
2026-05-06 01:11 29.83858 106.73120 4811 ft 288 kts 35°
2026-05-06 01:11 29.85575 106.74372 5431 ft 294 kts 34°
2026-05-06 01:11 29.87136 106.75843 6143 ft 294 kts 54°
2026-05-06 01:12 29.88356 106.77752 6786 ft 299 kts 56°
2026-05-06 01:12 29.89601 106.79658 7587 ft 298 kts 55°
2026-05-06 01:12 29.90849 106.81588 8278 ft 302 kts 55°
2026-05-06 01:12 29.92101 106.83540 9024 ft 304 kts 55°
2026-05-06 01:13 29.93363 106.85514 9718 ft 307 kts 54°
2026-05-06 01:13 29.94632 106.87506 10321 ft 313 kts 54°
2026-05-06 01:13 29.95959 106.89589 10582 ft 332 kts 54°
2026-05-06 01:13 29.97341 106.91761 10867 ft 348 kts 54°
2026-05-06 01:14 30.00297 106.96411 11802 ft 366 kts 54°
2026-05-06 01:14 30.01809 106.98792 12442 ft 370 kts 54°
2026-05-06 01:14 30.03337 107.01199 13082 ft 374 kts 54°
2026-05-06 01:15 30.04881 107.03633 13707 ft 378 kts 54°
2026-05-06 01:15 30.06440 107.06092 14286 ft 382 kts 54°
2026-05-06 01:15 30.08019 107.08582 14862 ft 386 kts 54°
2026-05-06 01:15 30.09493 107.11185 15445 ft 389 kts 65°
2026-05-06 01:16 30.10283 107.14120 16023 ft 390 kts 83°
2026-05-06 01:16 30.10277 107.17253 16519 ft 392 kts 102°
2026-05-06 01:16 30.09622 107.20308 17056 ft 394 kts 107°
2026-05-06 01:16 30.08869 107.23372 17548 ft 399 kts 108°
2026-05-06 01:17 30.08081 107.26455 18066 ft 402 kts 108°
2026-05-06 01:17 30.07269 107.29561 18483 ft 406 kts 109°
2026-05-06 01:17 30.06440 107.32688 18926 ft 409 kts 109°
2026-05-06 01:17 30.05600 107.35835 19357 ft 412 kts 109°
2026-05-06 01:18 30.04752 107.39004 19780 ft 415 kts 109°
2026-05-06 01:18 30.03907 107.42151 20182 ft 418 kts 110°
2026-05-06 01:18 30.03044 107.45369 20593 ft 421 kts 110°
2026-05-06 01:18 30.02174 107.48605 21008 ft 424 kts 110°
2026-05-06 01:19 30.01296 107.51866 21375 ft 427 kts 109°
2026-05-06 01:19 30.00412 107.55147 21776 ft 430 kts 109°
2026-05-06 01:19 29.99521 107.58452 22159 ft 433 kts 110°
2026-05-06 01:19 29.98623 107.61777 22556 ft 435 kts 109°
2026-05-06 01:20 29.97719 107.65122 22937 ft 439 kts 109°
2026-05-06 01:20 29.96821 107.68443 23301 ft 441 kts 109°
2026-05-06 01:20 29.95902 107.71832 23605 ft 443 kts 110°
2026-05-06 01:20 29.94981 107.75231 23932 ft 446 kts 109°
2026-05-06 01:21 29.94082 107.78657 24273 ft 448 kts 105°
2026-05-06 01:21 29.93726 107.82232 24570 ft 452 kts 89°
2026-05-06 01:21 29.94194 107.85819 24886 ft 455 kts 75°
2026-05-06 01:21 29.95019 107.89355 25179 ft 458 kts 75°
2026-05-06 01:22 29.95876 107.92906 25472 ft 461 kts 74°
2026-05-06 01:22 29.96755 107.96469 25791 ft 463 kts 73°
2026-05-06 01:22 29.97650 108.00043 26093 ft 465 kts 73°
2026-05-06 01:22 29.98541 108.03584 26434 ft 467 kts 73°
2026-05-06 01:23 29.99450 108.07201 26582 ft 471 kts 73°
2026-05-06 01:23 30.00362 108.10829 26590 ft 470 kts 73°
2026-05-06 01:23 30.01272 108.14451 26590 ft 470 kts 73°
2026-05-06 01:23 30.02180 108.18072 26600 ft 470 kts 73°
2026-05-06 01:24 30.03087 108.21694 26602 ft 470 kts 73°
2026-05-06 01:24 30.03993 108.25319 26601 ft 470 kts 73°
2026-05-06 01:24 30.04898 108.28940 26603 ft 470 kts 73°
2026-05-06 01:24 30.05790 108.32514 26605 ft 470 kts 73°
2026-05-06 01:25 30.06693 108.36138 26595 ft 470 kts 73°
2026-05-06 01:25 30.07597 108.39765 26608 ft 470 kts 73°
2026-05-06 01:25 30.08498 108.43391 26616 ft 470 kts 74°
2026-05-06 01:25 30.09397 108.47010 26615 ft 468 kts 74°
2026-05-06 01:26 30.10293 108.50619 26616 ft 468 kts 74°
2026-05-06 01:26 30.11186 108.54228 26617 ft 467 kts 74°
2026-05-06 01:26 30.12191 108.57797 26634 ft 467 kts 71°
2026-05-06 01:26 30.13228 108.61300 26640 ft 467 kts 71°
2026-05-06 01:27 30.14265 108.64859 26637 ft 467 kts 71°
2026-05-06 01:27 30.15297 108.68417 26642 ft 467 kts 71°
2026-05-06 01:27 30.16329 108.71984 26640 ft 469 kts 71°
2026-05-06 01:27 30.17363 108.75565 26638 ft 470 kts 71°
2026-05-06 01:28 30.18398 108.79154 26641 ft 471 kts 71°
2026-05-06 01:28 30.19432 108.82740 26633 ft 470 kts 71°
2026-05-06 01:28 30.20114 108.85111 26645 ft 469 kts 71°
2026-05-06 01:28 30.21144 108.88692 26649 ft 469 kts 71°
2026-05-06 01:29 30.22444 108.93452 26649 ft 469 kts 74°
2026-05-06 01:29 30.23329 108.97082 26637 ft 469 kts 74°
2026-05-06 01:29 30.24225 109.00710 26641 ft 469 kts 74°
2026-05-06 01:29 30.25126 109.04339 26660 ft 469 kts 74°
2026-05-06 01:30 30.26026 109.07967 26644 ft 469 kts 74°
2026-05-06 01:30 30.26623 109.10374 26656 ft 469 kts 74°
2026-05-06 01:30 30.27521 109.14000 26648 ft 469 kts 74°
2026-05-06 01:30 30.28418 109.17623 26659 ft 468 kts 74°
2026-05-06 01:31 30.29311 109.21236 26655 ft 467 kts 74°
2026-05-06 01:31 30.30486 109.26027 26656 ft 467 kts 74°
2026-05-06 01:31 30.31369 109.29647 26657 ft 467 kts 74°
2026-05-06 01:31 30.31965 109.32092 26642 ft 467 kts 74°
2026-05-06 01:32 30.32836 109.35656 26662 ft 467 kts 74°
2026-05-06 01:32 30.33722 109.39288 26670 ft 470 kts 74°
2026-05-06 01:32 30.34610 109.42932 26662 ft 471 kts 74°
2026-05-06 01:32 30.35495 109.46585 26652 ft 471 kts 74°
2026-05-06 01:33 30.36377 109.50234 26647 ft 471 kts 74°
2026-05-06 01:33 30.37259 109.53888 26655 ft 471 kts 74°
2026-05-06 01:33 30.38139 109.57542 26656 ft 471 kts 74°
2026-05-06 01:33 30.38954 109.61211 26648 ft 471 kts 79°
2026-05-06 01:34 30.39522 109.64941 26671 ft 471 kts 80°
2026-05-06 01:34 30.40078 109.68627 26655 ft 471 kts 80°
2026-05-06 01:34 30.40632 109.72361 26659 ft 470 kts 81°
2026-05-06 01:34 30.41182 109.76099 26671 ft 471 kts 81°
2026-05-06 01:35 30.41730 109.79835 26659 ft 470 kts 81°
2026-05-06 01:35 30.42277 109.83567 26656 ft 469 kts 80°
2026-05-06 01:35 30.42822 109.87294 26626 ft 469 kts 80°
2026-05-06 01:35 30.43366 109.91019 26664 ft 469 kts 80°
2026-05-06 01:36 30.43909 109.94750 26671 ft 469 kts 81°
2026-05-06 01:36 30.44450 109.98473 26659 ft 469 kts 80°
2026-05-06 01:36 30.44983 110.02150 26662 ft 469 kts 81°
2026-05-06 01:36 30.45523 110.05878 26664 ft 469 kts 81°
2026-05-06 01:37 30.46062 110.09609 26671 ft 469 kts 80°
2026-05-06 01:37 30.46598 110.13336 26666 ft 469 kts 81°
2026-05-06 01:37 30.47134 110.17066 26674 ft 469 kts 81°
2026-05-06 01:37 30.47669 110.20794 26661 ft 469 kts 81°
2026-05-06 01:38 30.48204 110.24517 26667 ft 469 kts 81°
2026-05-06 01:38 30.48736 110.28248 26668 ft 469 kts 81°
2026-05-06 01:38 30.49261 110.31927 26663 ft 469 kts 81°
2026-05-06 01:38 30.49792 110.35656 26665 ft 469 kts 81°
2026-05-06 01:39 30.50322 110.39387 26656 ft 469 kts 81°
2026-05-06 01:39 30.50850 110.43116 26665 ft 469 kts 81°
2026-05-06 01:39 30.51378 110.46848 26674 ft 469 kts 81°
2026-05-06 01:39 30.51904 110.50577 26644 ft 468 kts 81°
2026-05-06 01:40 30.52429 110.54302 26656 ft 468 kts 81°
2026-05-06 01:40 30.52952 110.58028 26665 ft 468 kts 81°
2026-05-06 01:40 30.53475 110.61756 26648 ft 468 kts 81°
2026-05-06 01:40 30.53996 110.65478 26654 ft 468 kts 81°
2026-05-06 01:41 30.54509 110.69154 26651 ft 468 kts 81°
2026-05-06 01:41 30.55540 110.76557 26671 ft 468 kts 81°
2026-05-06 01:41 30.56057 110.80287 26633 ft 468 kts 81°
2026-05-06 01:42 30.56573 110.84010 26646 ft 467 kts 81°
2026-05-06 01:42 30.57086 110.87729 26633 ft 467 kts 81°
2026-05-06 01:42 30.57592 110.91400 26638 ft 467 kts 81°
2026-05-06 01:42 30.58104 110.95123 26637 ft 467 kts 81°
2026-05-06 01:43 30.58614 110.98842 26617 ft 467 kts 81°
2026-05-06 01:43 30.59124 111.02564 26651 ft 467 kts 81°
2026-05-06 01:43 30.59634 111.06296 26635 ft 469 kts 81°
2026-05-06 01:43 30.60144 111.10033 26617 ft 469 kts 81°
2026-05-06 01:44 30.60653 111.13772 26632 ft 469 kts 81°
2026-05-06 01:44 30.61161 111.17512 26630 ft 470 kts 81°
2026-05-06 01:44 30.61662 111.21205 26614 ft 469 kts 81°
2026-05-06 01:44 30.62169 111.24948 26630 ft 469 kts 81°
2026-05-06 01:45 30.62672 111.28695 26615 ft 470 kts 81°
2026-05-06 01:45 30.63175 111.32437 26621 ft 469 kts 81°
2026-05-06 01:45 30.63677 111.36184 26620 ft 470 kts 81°
2026-05-06 01:45 30.64179 111.39931 26615 ft 470 kts 81°
2026-05-06 01:46 30.64680 111.43678 26614 ft 470 kts 81°
2026-05-06 01:46 30.65151 111.47428 26606 ft 469 kts 85°
2026-05-06 01:46 30.65340 111.51208 26626 ft 469 kts 87°
2026-05-06 01:46 30.65532 111.54939 26620 ft 469 kts 87°
2026-05-06 01:47 30.65745 111.58720 26621 ft 469 kts 86°
2026-05-06 01:47 30.65965 111.62504 26626 ft 469 kts 86°
2026-05-06 01:47 30.66186 111.66283 26618 ft 469 kts 86°
2026-05-06 01:47 30.66380 111.70066 26620 ft 469 kts 87°
2026-05-06 01:48 30.66572 111.73850 26616 ft 469 kts 87°
2026-05-06 01:48 30.66764 111.77633 26620 ft 469 kts 87°
2026-05-06 01:48 30.66955 111.81418 26613 ft 469 kts 87°
2026-05-06 01:48 30.67142 111.85144 26622 ft 468 kts 87°
2026-05-06 01:49 30.67331 111.88918 26623 ft 468 kts 87°
2026-05-06 01:49 30.67518 111.92685 26617 ft 468 kts 87°
2026-05-06 01:49 30.67731 111.96456 26619 ft 468 kts 85°
2026-05-06 01:49 30.68001 112.00221 26621 ft 468 kts 85°
2026-05-06 01:50 30.68262 112.03984 26634 ft 468 kts 86°
2026-05-06 01:50 30.68520 112.07748 26622 ft 467 kts 86°
2026-05-06 01:50 30.68776 112.11510 26619 ft 467 kts 86°
2026-05-06 01:50 30.69032 112.15274 26619 ft 467 kts 86°
2026-05-06 01:51 30.69281 112.18977 26618 ft 466 kts 86°
2026-05-06 01:51 30.69533 112.22733 26620 ft 466 kts 86°
2026-05-06 01:51 30.69784 112.26484 26615 ft 466 kts 86°
2026-05-06 01:51 30.70034 112.30241 26616 ft 466 kts 86°
2026-05-06 01:52 30.70282 112.33991 26616 ft 466 kts 86°
2026-05-06 01:52 30.70530 112.37744 26624 ft 466 kts 86°
2026-05-06 01:52 30.70776 112.41495 26622 ft 466 kts 86°
2026-05-06 01:52 30.71021 112.45250 26569 ft 466 kts 86°
2026-05-06 01:53 30.71262 112.48948 26402 ft 465 kts 86°
2026-05-06 01:53 30.71505 112.52691 26331 ft 464 kts 86°
2026-05-06 01:53 30.71746 112.56432 26333 ft 464 kts 86°
2026-05-06 01:53 30.71986 112.60173 26337 ft 464 kts 86°
2026-05-06 01:54 30.72226 112.63924 26349 ft 468 kts 86°
2026-05-06 01:54 30.72468 112.67721 26389 ft 476 kts 86°
2026-05-06 01:54 30.72713 112.71591 26395 ft 484 kts 86°
2026-05-06 01:54 30.72960 112.75519 26401 ft 492 kts 86°
2026-05-06 01:55 30.73211 112.79512 26404 ft 498 kts 86°
2026-05-06 01:55 30.73460 112.83499 26407 ft 505 kts 86°
2026-05-06 01:55 30.73714 112.87588 26414 ft 510 kts 86°
2026-05-06 01:55 30.73969 112.91715 26423 ft 513 kts 86°
2026-05-06 01:56 30.74223 112.95856 26445 ft 514 kts 86°
2026-05-06 01:56 30.74476 112.99995 26436 ft 514 kts 86°
2026-05-06 01:56 30.74729 113.04138 26450 ft 513 kts 86°
2026-05-06 01:56 30.74980 113.08276 26441 ft 513 kts 86°
2026-05-06 01:57 30.75229 113.12420 26452 ft 514 kts 87°
2026-05-06 01:57 30.75164 113.16562 26439 ft 512 kts 95°
2026-05-06 01:57 30.74923 113.20636 26454 ft 513 kts 95°
2026-05-06 01:57 30.74670 113.24769 26448 ft 512 kts 95°
2026-05-06 01:58 30.74411 113.28897 26450 ft 512 kts 95°
2026-05-06 01:58 30.74149 113.33027 26446 ft 512 kts 95°
2026-05-06 01:58 30.73886 113.37156 26441 ft 512 kts 95°
2026-05-06 01:58 30.73622 113.41285 26436 ft 512 kts 95°
2026-05-06 01:59 30.73357 113.45412 26448 ft 513 kts 95°
2026-05-06 01:59 30.73086 113.49545 26450 ft 513 kts 95°
2026-05-06 01:59 30.72813 113.53624 26442 ft 513 kts 95°
2026-05-06 01:59 30.72537 113.57754 26450 ft 513 kts 95°
2026-05-06 02:00 30.72259 113.61884 26432 ft 513 kts 96°
2026-05-06 02:00 30.71980 113.66020 26447 ft 513 kts 96°
2026-05-06 02:00 30.71700 113.70154 26449 ft 513 kts 96°
2026-05-06 02:00 30.71418 113.74289 26454 ft 513 kts 96°
2026-05-06 02:01 30.71135 113.78420 26443 ft 513 kts 96°
2026-05-06 02:01 30.70851 113.82545 26454 ft 512 kts 96°
2026-05-06 02:01 30.70597 113.86619 26446 ft 513 kts 92°
2026-05-06 02:01 30.70936 113.90738 26453 ft 513 kts 78°
2026-05-06 02:02 30.71898 113.94730 26460 ft 514 kts 70°
2026-05-06 02:02 30.73272 113.98552 26476 ft 506 kts 64°
2026-05-06 02:02 30.75094 114.01939 26490 ft 484 kts 47°
2026-05-06 02:02 30.77393 114.04683 26500 ft 465 kts 42°
2026-05-06 02:03 30.79685 114.07232 26510 ft 448 kts 41°
2026-05-06 02:03 30.81936 114.09651 26524 ft 433 kts 40°
2026-05-06 02:03 30.84098 114.11931 26525 ft 418 kts 39°
2026-05-06 02:03 30.86238 114.14134 26521 ft 404 kts 39°
2026-05-06 02:04 30.88309 114.16254 26513 ft 390 kts 38°
2026-05-06 02:04 30.90309 114.18301 26507 ft 376 kts 38°
2026-05-06 02:04 30.92245 114.20283 26507 ft 367 kts 38°
2026-05-06 02:04 30.94157 114.22242 26441 ft 365 kts 38°
2026-05-06 02:05 30.96061 114.24192 26450 ft 364 kts 38°
2026-05-06 02:05 30.97961 114.26142 26454 ft 364 kts 38°
2026-05-06 02:05 30.99853 114.28083 26348 ft 358 kts 38°
2026-05-06 02:05 31.01696 114.29975 25641 ft 361 kts 39°
2026-05-06 02:06 31.03655 114.31983 22912 ft 410 kts 40°
2026-05-06 02:06 31.05963 114.34355 20183 ft 463 kts 40°
2026-05-06 02:06 31.08418 114.36915 18176 ft 482 kts 44°
2026-05-06 02:06 31.10501 114.40027 16040 ft 492 kts 60°
2026-05-06 02:07 31.11906 114.43678 14164 ft 494 kts 74°
2026-05-06 02:07 31.12391 114.47610 12167 ft 489 kts 94°
2026-05-06 02:07 31.11725 114.51396 10301 ft 481 kts 114°
2026-05-06 02:07 31.09938 114.54526 9557 ft 446 kts 139°
2026-05-06 02:08 31.07471 114.56338 9579 ft 400 kts 162°
2026-05-06 02:08 31.04871 114.56742 9566 ft 362 kts 187°
2026-05-06 02:08 31.02555 114.55875 9062 ft 346 kts 213°
2026-05-06 02:08 31.00945 114.53900 8550 ft 333 kts 241°
2026-05-06 02:09 31.00151 114.51414 8118 ft 322 kts 250°
2026-05-06 02:09 30.99341 114.49036 7680 ft 310 kts 242°
2026-05-06 02:09 30.98424 114.46848 7282 ft 300 kts 242°
2026-05-06 02:09 30.97388 114.44800 6923 ft 287 kts 231°
2026-05-06 02:10 30.96175 114.43013 6606 ft 276 kts 228°
2026-05-06 02:10 30.94933 114.41360 6232 ft 268 kts 225°
2026-05-06 02:10 30.93648 114.39795 5711 ft 267 kts 223°
2026-05-06 02:10 30.92308 114.38271 5010 ft 272 kts 223°
2026-05-06 02:11 30.90911 114.36752 4315 ft 278 kts 222°
2026-05-06 02:11 30.89475 114.35225 3591 ft 281 kts 221°
2026-05-06 02:11 30.88037 114.33712 3204 ft 272 kts 221°
2026-05-06 02:11 30.86687 114.32305 2773 ft 264 kts 220°
2026-05-06 02:12 30.85313 114.30898 2393 ft 257 kts 218°
2026-05-06 02:12 30.83972 114.29519 1662 ft 253 kts 217°
2026-05-06 02:12 30.82712 114.28187 1192 ft 238 kts 219°
2026-05-06 02:12 30.81530 114.26951 909 ft 219 kts 217°
2026-05-06 02:13 30.80447 114.25837 716 ft 196 kts 218°
2026-05-06 02:13 30.79501 114.24867 485 ft 168 kts 217°
2026-05-06 02:13 30.78667 114.24047 297 ft 149 kts 218°
2026-05-06 02:13 30.77885 114.23247 121 ft 144 kts 220°
2026-05-06 02:14 30.77237 114.22586 111 ft 101 kts 221°
2026-05-06 02:14 30.76857 114.22188 111 ft 51 kts 229°
2026-05-06 02:14 30.76748 114.21948 110 ft 23 kts 251°
2026-05-06 02:14 30.76819 114.21880 110 ft 14 kts 52°
2026-05-06 02:15 30.76885 114.21960 109 ft 14 kts 32°
2026-05-06 02:15 30.76974 114.21958 109 ft 13 kts 331°
2026-05-06 02:15 30.77033 114.21973 110 ft 9 kts 38°
2026-05-06 02:15 30.77080 114.22025 110 ft 10 kts 45°
2026-05-06 02:16 30.77134 114.22047 110 ft 8 kts 336°
2026-05-06 02:16 30.77168 114.22011 108 ft 5 kts 311°
2026-05-06 02:16 30.77188 114.21985 108 ft 3 kts 312°
2026-05-06 02:16 30.77199 114.21970 110 ft 0 kts 310°
2026-05-06 02:17 30.77201 114.21968 110 ft 0 kts 311°
2026-05-06 02:22 30.79893 114.25264 576 ft 180 kts 217°
2026-05-06 02:23 30.78957 114.24338 335 ft 154 kts 217°
2026-05-06 02:23 30.78173 114.23543 154 ft 151 kts 219°
2026-05-06 02:23 30.77682 114.23033 114 ft 135 kts 215°
2026-05-06 02:23 30.78154 114.23525 149 ft 151 kts 219°
2026-05-06 02:24 30.77385 114.22741 111 ft 117 kts 222°
2026-05-06 02:24 30.76931 114.22271 111 ft 62 kts 222°
2026-05-06 02:24 30.76762 114.21996 112 ft 30 kts 253°